TimeCDT,TemperatureF,Dew PointF,Humidity,Sea Level PressureIn,VisibilityMPH,Wind Direction,Wind SpeedMPH,Gust SpeedMPH,PrecipitationIn,Events,Conditions,WindDirDegrees,DateUTC
12:53 AM,50.0,45.0,83,30.25,10.0,Calm,Calm,-,N/A,,Clear,0,2013-05-24 05:53:00
1:53 AM,46.9,43.0,86,30.25,10.0,Calm,Calm,-,N/A,,Clear,0,2013-05-24 06:53:00
2:53 AM,46.9,44.1,90,30.26,10.0,NNE,3.5,-,N/A,,Clear,30,2013-05-24 07:53:00
3:53 AM,46.0,44.1,93,30.26,10.0,West,3.5,-,N/A,,Clear,280,2013-05-24 08:53:00
4:21 AM,44.6,42.8,93,30.28,1.5,Calm,Calm,-,N/A,,Clear,0,2013-05-24 09:21:00
4:31 AM,46.4,44.6,93,30.28,3.0,Calm,Calm,-,N/A,,Clear,0,2013-05-24 09:31:00
4:53 AM,46.0,43.0,89,30.27,10.0,ENE,5.8,-,N/A,,Clear,60,2013-05-24 09:53:00
5:53 AM,44.1,42.1,93,30.29,8.0,Calm,Calm,-,N/A,,Clear,0,2013-05-24 10:53:00
6:53 AM,50.0,46.9,89,30.31,10.0,Calm,Calm,-,N/A,,Clear,0,2013-05-24 11:53:00
7:53 AM,55.0,48.9,80,30.32,10.0,SE,6.9,-,N/A,,Scattered Clouds,130,2013-05-24 12:53:00
8:53 AM,62.1,50.0,65,30.31,10.0,SE,12.7,-,N/A,,Clear,140,2013-05-24 13:53:00
9:53 AM,64.9,50.0,58,30.31,10.0,SSE,15.0,21.9,N/A,,Partly Cloudy,150,2013-05-24 14:53:00
10:53 AM,66.0,48.0,52,30.31,10.0,SE,15.0,24.2,N/A,,Partly Cloudy,130,2013-05-24 15:53:00
11:53 AM,68.0,48.0,49,30.30,10.0,SE,18.4,25.3,N/A,,Partly Cloudy,130,2013-05-24 16:53:00
12:53 PM,69.1,46.9,45,30.27,10.0,SSE,16.1,-,N/A,,Clear,150,2013-05-24 17:53:00
1:53 PM,71.1,45.0,39,30.26,10.0,SE,15.0,23.0,N/A,,Clear,140,2013-05-24 18:53:00
2:53 PM,73.0,45.0,37,30.24,10.0,SSE,10.4,21.9,N/A,,Clear,160,2013-05-24 19:53:00
3:53 PM,73.0,46.0,38,30.22,10.0,SE,13.8,-,N/A,,Clear,140,2013-05-24 20:53:00
4:53 PM,71.1,46.0,41,30.20,10.0,SE,12.7,-,N/A,,Overcast,130,2013-05-24 21:53:00
5:53 PM,71.1,46.0,41,30.17,10.0,SE,15.0,20.7,N/A,,Overcast,130,2013-05-24 22:53:00
6:53 PM,71.1,45.0,39,30.14,10.0,SE,12.7,-,N/A,,Clear,140,2013-05-24 23:53:00
7:53 PM,69.1,45.0,42,30.13,10.0,SE,11.5,-,N/A,,Clear,140,2013-05-25 00:53:00
8:53 PM,66.9,44.1,44,30.12,10.0,SE,13.8,-,N/A,,Clear,140,2013-05-25 01:53:00
9:53 PM,64.9,44.1,47,30.14,10.0,SSE,10.4,-,N/A,,Clear,150,2013-05-25 02:53:00
10:53 PM,63.0,45.0,52,30.15,10.0,SE,8.1,-,N/A,,Clear,140,2013-05-25 03:53:00
11:53 PM,63.0,44.1,50,30.14,10.0,SSE,10.4,-,N/A,,Clear,150,2013-05-25 04:53:00